EW9824 Weather Reports


time (UTC)temp
C
wind
direction
speed
KPH
gust
KPH
rain 1hr
cm
rain 24hr
cm
rain mn
cm
humidity
%
barometer
mb
20260507043030 13 357 3.2 11.3 0.00 0.00 0.00 65 1022.2
20260507041528 14 185 4.8 11.3 0.00 0.00 0.00 62 1022.1
20260507034646 15 262 6.4 19.3 0.00 0.00 0.00 58 1022.1
20260507033030 15 279 6.4 22.5 0.00 0.00 0.00 59 1022.0
20260507031606 16 257 9.7 19.3 0.00 0.00 0.00 58 1022.0
20260507030029 16 251 6.4 16.1 0.00 0.00 0.00 57 1022.1
20260507024530 17 270 8.0 20.9 0.00 0.00 0.00 55 1022.1
20260507023030 17 253 12.9 22.5 0.00 0.00 0.00 53 1022.0
20260507021533 18 256 11.3 25.7 0.00 0.00 0.00 51 1021.9
20260507020031 18 260 12.9 32.2 0.00 0.00 0.00 50 1021.7
20260507014529 19 268 11.3 24.1 0.00 0.00 0.00 49 1021.6
20260507013031 19 259 14.5 27.4 0.00 0.00 0.00 48 1021.5
20260507011531 20 263 12.9 30.6 0.00 0.00 0.00 46 1021.6
20260507010031 20 274 14.5 29.0 0.00 0.00 0.00 44 1021.5
20260507004530 21 272 14.5 27.4 0.00 0.00 0.00 41 1021.4
20260507003032 22 263 9.7 22.5 0.00 0.00 0.00 42 1021.2
20260507001531 21 277 11.3 24.1 0.00 0.00 0.00 41 1021.2
20260507000108 22 260 11.3 27.4 0.00 0.00 0.00 41 1021.1
20260506234532 22 282 9.7 27.4 0.00 0.00 0.00 42 1021.0
20260506233032 22 287 8.0 20.9 0.00 0.00 0.00 40 1021.0
20260506231604 22 274 11.3 25.7 0.00 0.00 0.00 39 1020.9
20260506230031 23 278 12.9 25.7 0.00 0.00 0.00 38 1020.8
20260506224530 24 263 11.3 27.4 0.00 0.00 0.00 38 1021.0
20260506223029 23 269 8.0 22.5 0.00 0.00 0.00 40 1021.1
20260506221532 22 286 9.7 22.5 0.00 0.00 0.00 41 1021.3
20260506220033 23 288 11.3 29.0 0.00 0.00 0.00 41 1021.2
20260506214533 23 282 9.7 25.7 0.00 0.00 0.00 41 1021.1
20260506211529 22 273 9.7 24.1 0.00 0.00 0.00 43 1021.2
20260506210028 22 302 8.0 20.9 0.00 0.00 0.00 46 1021.2
20260506204530 21 314 11.3 24.1 0.00 0.00 0.00 46 1021.3
20260506203030 21 299 14.5 27.4 0.00 0.00 0.00 45 1021.3
20260506201645 22 302 11.3 27.4 0.00 0.00 0.00 45 1021.2
20260506200028 22 306 11.3 30.6 0.00 0.00 0.00 45 1021.2
20260506194534 22 286 9.7 20.9 0.00 0.00 0.00 46 1021.2
20260506193029 21 294 9.7 24.1 0.00 0.00 0.00 49 1021.3
20260506191531 21 307 9.7 22.5 0.00 0.00 0.00 51 1021.4
20260506190031 20 297 12.9 27.4 0.00 0.00 0.00 52 1021.4
20260506184530 20 327 9.7 24.1 0.00 0.00 0.00 54 1021.2
20260506181530 19 307 9.7 22.5 0.00 0.00 0.00 56 1021.5
20260506174529 20 318 8.0 22.5 0.00 0.00 0.00 57 1021.3
20260506171530 18 30 6.4 12.9 0.00 0.00 0.00 63 1021.1
20260506170031 17 358 9.7 19.3 0.00 0.00 0.00 64 1021.1
20260506164530 17 68 9.7 19.3 0.00 0.00 0.00 66 1021.3
20260506163107 17 358 11.3 22.5 0.00 0.00 0.00 67 1021.7
20260506161530 16 348 8.0 16.1 0.00 0.00 0.00 69 1021.8
20260506160114 16 346 6.4 17.7 0.00 0.00 0.00 72 1021.6
20260506154530 15 352 6.4 14.5 0.00 0.00 0.00 75 1021.7
20260506153034 14 344 8.0 12.9 0.00 0.00 0.00 82 1021.4
20260506151529 12 64 1.6 6.4 0.00 0.00 0.00 92 1021.2
20260506143037 8 172 1.6 4.8 0.00 0.00 0.00 96 1021.3
20260506141531 7 149 3.2 8.0 0.00 0.00 0.00 95 1021.0
20260506140030 7 157 3.2 6.4 0.00 0.00 0.00 94 1020.9
20260506134531 8 199 3.2 6.4 0.00 0.00 0.00 92 1020.8
20260506133033 9 297 6.4 25.7 0.00 0.00 0.00 96 1020.7
20260506131648 7 301 6.4 20.9 0.00 0.00 0.00 97 1020.6
20260506124534 7 173 4.8 9.7 0.00 0.00 0.00 97 1020.4
20260506123030 6 147 3.2 11.3 0.00 0.00 0.00 97 1020.1
20260506120034 6 186 3.2 11.3 0.00 0.00 0.00 96 1019.9
20260506114535 7 175 3.2 6.4 0.00 0.00 0.00 96 1019.8
20260506113108 7 147 3.2 6.4 0.00 0.00 0.00 96 1019.6
20260506111651 7 156 1.6 6.4 0.00 0.00 0.00 96 1019.5
20260506110034 7 177 3.2 9.7 0.00 0.00 0.00 96 1019.4
20260506104531 7 181 3.2 6.4 0.00 0.00 0.00 96 1019.2
20260506103033 7 187 4.8 6.4 0.00 0.00 0.00 96 1019.1
20260506101531 7 176 4.8 6.4 0.00 0.00 0.00 96 1019.0
20260506094609 7 180 3.2 6.4 0.00 0.00 0.00 95 1019.0
20260506093031 7 177 1.6 4.8 0.00 0.00 0.00 95 1019.0
20260506090031 8 179 3.2 6.4 0.00 0.00 0.00 94 1018.9
20260506083029 8 183 3.2 4.8 0.00 0.00 0.00 94 1018.7
20260506081539 8 180 3.2 6.4 0.00 0.00 0.00 93 1018.6
20260506073106 9 167 1.6 4.8 0.00 0.00 0.00 91 1018.3
20260506071531 10 168 3.2 6.4 0.00 0.00 0.00 90 1018.3
20260506070110 10 173 3.2 4.8 0.00 0.00 0.00 90 1018.2
20260506061537 10 175 3.2 6.4 0.00 0.00 0.00 88 1018.0
20260506044532 13 83 1.6 3.2 0.00 0.00 0.00 76 1017.4